COSMOS 2432 (719)

Last updated on Thu Dec 11 2025 00:03:19 GMT+0000 (Coordinated Universal Time)

1 32276U 07052B 25344.58077953 -.00000050 00000+0 00000+0 0 9990 2 32276 65.7001 322.4023 0011254 311.5771 228.3090 2.13102999141067
UTC large
Height (km)
Speed (km/s)
/
Latitude / Longitude
Inclination (degrees)
Orbital Period (minutes)
Azimuth
Elevation
Range (km)
Doppler Factor

Next 0 passes for location: London (51.5072 / 0.1276)

Sorry there are no passes over London.